Location: Sobotiste
(48.7170°N, 17.4000°E)
Time: 21:41:47
(UTC+02:00)

ITUPSAT 1 - Pass Details

Date: 22 March 2026
Orbit: 686 x 698 km, 98.4° (Epoch: 20 April)

Event Time Altitude Azimuth Distance (km) Brightness Sun altitude
Rises 23:15:30 0° 16° (NNE) 3,070 ? -39.6°
Reaches altitude 10° 23:17:47 10° 19° (NNE) 2,147 ? -39.6°
Enters shadow 23:18:00 11° 20° (NNE) 2,056 ? -39.6°
